Simultaneous Nadir Overpasses (SNOs) Predictions

Prediction of SNOs between FY3D and METOP-C Satellite Orbit:

Table of predicted SNOs for the next 14.0 days since TLE Epoch: 8/22/2020
Index Date (FY3D) Time (FY3D) Lat,Lon (FY3D) SZA (FY3D ) Date (METOP-C) Time (METOP-C) Lat,Lon (METOP-C) SZA (METOP-C ) Distance(km) Time Diff (sec)
1 08/22/2020 03:15:05 73.08, 123.84 61.53 08/22/2020 03:15:55 73.06, 123.83 61.50 2.05 50
2 08/22/2020 04:05:48 -73.05, -68.79 118.49 08/22/2020 04:06:36 -73.07, -68.82 118.48 2.00 48
3 08/22/2020 04:56:34 73.07, 98.47 61.55 08/22/2020 04:57:16 73.08, 98.55 61.55 2.78 42
4 08/22/2020 05:47:17 -73.05, -94.16 118.47 08/22/2020 05:47:58 -73.04, -94.21 118.48 1.78 41
5 08/22/2020 06:38:03 73.07, 73.11 61.57 08/22/2020 06:38:38 73.06, 73.16 61.55 1.90 35
6 08/22/2020 07:28:46 -73.05,-119.52 118.45 08/22/2020 07:29:19 -73.07,-119.49 118.43 3.07 33
7 08/22/2020 08:19:32 73.07, 47.74 61.59 08/22/2020 08:20:00 73.04, 47.77 61.55 3.30 28
8 08/22/2020 09:10:15 -73.04,-144.89 118.43 08/22/2020 09:10:41 -73.05,-144.88 118.43 0.72 26
9 08/22/2020 10:01:00 73.01, 22.49 61.55 08/22/2020 10:01:22 73.02, 22.38 61.56 3.43 22
10 08/22/2020 10:51:44 -73.04,-170.25 118.41 08/22/2020 10:52:03 -73.03,-170.27 118.43 1.64 19
11 08/22/2020 11:42:30 73.06, -2.99 61.63 08/22/2020 11:42:43 73.04, -2.90 61.61 3.53 13
12 08/22/2020 12:33:13 -73.04, 164.38 118.39 08/22/2020 12:33:24 -73.05, 164.45 118.38 2.91 11
13 08/22/2020 13:23:58 73.01, -28.24 61.60 08/22/2020 13:24:05 73.02, -28.29 61.61 1.92 7
14 08/22/2020 14:14:42 -73.04, 139.02 118.37 08/22/2020 14:14:46 -73.03, 139.07 118.37 1.61 4
15 08/22/2020 15:05:27 73.01, -53.61 61.62 08/22/2020 15:05:27 73.00, -53.68 61.61 2.42 0
16 08/22/2020 15:56:11 -73.03, 113.65 118.35 08/22/2020 15:56:08 -73.01, 113.68 118.37 2.79 3
17 08/22/2020 16:46:56 73.00, -78.97 61.64 08/22/2020 16:46:48 73.03, -78.96 61.66 2.44 8
18 08/22/2020 17:37:39 -72.98, 88.40 118.38 08/22/2020 17:37:30 -72.99, 88.29 118.37 3.53 9
19 08/22/2020 18:28:25 73.00,-104.34 61.66 08/22/2020 18:28:10 73.00,-104.35 61.66 0.25 15
20 08/22/2020 19:19:09 -73.03, 62.92 118.30 08/22/2020 19:18:51 -73.01, 63.01 118.32 3.20 18
21 08/22/2020 20:09:54 73.00,-129.70 61.68 08/22/2020 20:09:32 72.98,-129.73 61.67 2.36 22
22 08/22/2020 21:00:37 -72.98, 37.66 118.34 08/22/2020 21:00:13 -72.99, 37.62 118.32 2.33 24
23 08/22/2020 21:51:23 73.00,-155.07 61.70 08/22/2020 21:50:53 73.01,-155.02 61.71 2.14 30
24 08/22/2020 22:42:06 -72.97, 12.30 118.32 08/22/2020 22:41:35 -72.97, 12.23 118.31 2.23 31
25 08/22/2020 23:32:52 72.99, 179.57 61.72 08/22/2020 23:32:15 72.98, 179.60 61.72 1.44 37
26 08/23/2020 00:23:35 -72.97, -13.07 118.30 08/23/2020 00:22:56 -73.00, -13.05 118.26 3.01 39
27 08/23/2020 01:14:21 72.99, 154.20 61.74 08/23/2020 01:13:37 72.96, 154.21 61.72 3.31 44
28 08/23/2020 02:05:04 -72.97, -38.43 118.28 08/23/2020 02:04:18 -72.97, -38.44 118.26 0.74 46
29 08/23/2020 02:55:50 72.99, 128.84 61.76 08/23/2020 02:54:58 72.99, 128.93 61.77 2.98 52
30 08/23/2020 03:46:33 -72.97, -63.80 118.25 08/23/2020 03:45:40 -72.95, -63.82 118.26 1.78 53
31 08/23/2020 04:37:18 72.99, 103.47 61.78 08/23/2020 04:36:19 72.97, 103.54 61.77 3.12 59
32 08/23/2020 05:28:01 -72.96, -89.16 118.23 08/23/2020 05:27:00 -72.98, -89.11 118.21 2.60 61
33 08/23/2020 06:18:46 72.93, 78.21 61.75 08/23/2020 06:17:41 72.94, 78.15 61.78 2.36 65
34 08/23/2020 07:09:30 -72.96,-114.53 118.21 08/23/2020 07:08:22 -72.96,-114.49 118.21 1.16 68
35 08/23/2020 08:00:15 72.93, 52.85 61.77 08/23/2020 07:59:03 72.92, 52.76 61.78 3.04 72
36 08/23/2020 08:50:59 -72.96,-139.89 118.19 08/23/2020 08:49:44 -72.93,-139.88 118.20 2.64 75
37 08/23/2020 09:41:40 72.73, 27.91 61.57 08/23/2020 09:40:28 72.75, 27.06 61.64 28.25 72
38 08/23/2020 10:32:23 -72.70,-164.73 118.44 08/23/2020 10:31:11 -72.66,-165.79 118.42 35.69 72
39 08/23/2020 11:23:04 72.47, 3.06 61.32 08/23/2020 11:21:55 72.47, 1.15 61.42 64.04 69
40 08/23/2020 12:13:46 -72.40, 170.53 118.75 08/23/2020 12:12:38 -72.38, 168.31 118.65 74.58 68
